KIZUNA (WINDS)

Last updated on Sun Apr 28 2019 03:04:47 GMT+0000 (Coordinated Universal Time)

1 32500U 08007A 19117.50950147 -.00000298 00000-0 00000+0 0 9994 2 32500 2.3038 86.1281 0002354 305.6625 146.3548 1.00245845 40885
UTC large
Height (km)
Speed (km/s)
/
Latitude / Longitude
Inclination (degrees)
Orbital Period (minutes)
Azimuth
Elevation
Range (km)
Doppler Factor

Next 0 passes for location: London (51.5072 / 0.1276)

Sorry there are no passes over London.